Location: Medlow Airstrip Trail, Medlow Bath NSW 2780, Australia
(33.6682°S, 150.3233°E)
Time: 12:37:02
(UTC+10:00)

Hubble Space Telescope - Visible Passes

Search period start: 18 August 2019 00:00
Search period end: 28 August 2019 00:00
Orbit: 536 x 540 km, 28.5° (Epoch: 17 August)

Date Brightness Start Highest point End Pass type
(mag) Time Alt. Az. Time Alt. Az. Time Alt. Az.
18 Aug 2.7 05:41:41 10° NW 05:45:06 25° NNE 05:48:32 10° ENE visible
19 Aug 2.4 05:30:54 10° NW 05:34:29 28° NNE 05:38:06 10° ENE visible
20 Aug 2.2 05:21:07 15° NW 05:23:53 32° N 05:27:38 10° ENE visible
21 Aug 2.0 05:11:17 22° NW 05:13:18 35° N 05:17:07 10° ENE visible
22 Aug 1.8 05:01:24 29° NNW 05:02:42 37° N 05:06:35 10° ENE visible
23 Aug 1.6 04:51:28 36° NNW 04:52:07 39° N 04:56:02 10° ENE visible
24 Aug 1.5 04:41:31 40° N 04:41:33 40° N 04:45:28 10° ENE visible
25 Aug 1.8 04:31:33 38° NNE 04:31:33 38° NNE 04:34:54 10° ENE visible
26 Aug 2.2 04:21:36 31° NE 04:21:36 31° NE 04:24:18 10° ENE visible
26 Aug 2.4 05:57:50 10° WNW 06:01:12 24° NNW 06:04:34 10° NE visible
27 Aug 2.7 04:11:41 24° NE 04:11:41 24° NE 04:13:40 10° ENE visible
27 Aug 2.6 05:47:28 10° WNW 05:50:35 20° NNW 05:53:41 10° NNE visible
